FJI822 PLCH-PHNL

Flight info

Callsign FJI822
Flight time 2h 58m
Altitude 38000
Route XI 05N158W 10N159W 15N159W DATBE CARRP OPACA4
Aircraft B38M/M-SDE1FGHIJ4J7LMRWXZ/LB1

Departure

Time 2026-05-07 02:46
Airport Cassidy International Airport (PLCH)

Arrival

Time 2026-05-07 05:44
Airport Daniel K. Inouye International Airport (PHNL)
Time Latitude Longitude Altitude Speed Heading
2026-05-07 02:16 1.98352 -157.35599 25 ft 0 kts 233°
2026-05-07 02:42 1.98351 -157.35600 25 ft 1 kts 233°
2026-05-07 02:42 1.98352 -157.35618 25 ft 6 kts 289°
2026-05-07 02:42 1.98411 -157.35638 26 ft 13 kts 30°
2026-05-07 02:42 1.98473 -157.35564 25 ft 15 kts 52°
2026-05-07 02:43 1.98544 -157.35474 23 ft 13 kts 52°
2026-05-07 02:43 1.98612 -157.35410 20 ft 9 kts 354°
2026-05-07 02:43 1.98628 -157.35450 21 ft 7 kts 268°
2026-05-07 02:43 1.98628 -157.35519 19 ft 14 kts 270°
2026-05-07 02:44 1.98627 -157.35644 19 ft 22 kts 270°
2026-05-07 02:44 1.98628 -157.35792 22 ft 12 kts 270°
2026-05-07 02:44 1.98618 -157.35868 24 ft 6 kts 253°
2026-05-07 02:44 1.98614 -157.35910 23 ft 5 kts 301°
2026-05-07 02:45 1.98618 -157.35911 24 ft 1 kts 344°
2026-05-07 02:45 1.98626 -157.35899 25 ft 6 kts 71°
2026-05-07 02:45 1.98627 -157.35773 21 ft 46 kts 90°
2026-05-07 02:45 1.98626 -157.35165 18 ft 126 kts 89°
2026-05-07 02:46 1.98622 -157.34075 172 ft 176 kts 90°
2026-05-07 02:46 1.98621 -157.32817 982 ft 185 kts 89°
2026-05-07 02:46 1.98631 -157.31979 1711 ft 178 kts 89°
2026-05-07 02:46 1.98925 -157.30251 2505 ft 206 kts 59°
2026-05-07 02:47 1.99970 -157.29188 3026 ft 230 kts 32°
2026-05-07 02:47 2.00969 -157.28789 3508 ft 237 kts
2026-05-07 02:47 2.02641 -157.28977 4326 ft 254 kts 340°
2026-05-07 02:47 2.04348 -157.29591 5097 ft 268 kts 348°
2026-05-07 02:48 2.06204 -157.30018 5971 ft 278 kts 348°
2026-05-07 02:48 2.08111 -157.30471 6921 ft 284 kts 348°
2026-05-07 02:48 2.10048 -157.30931 7856 ft 289 kts 348°
2026-05-07 02:48 2.12018 -157.31399 8758 ft 293 kts 348°
2026-05-07 02:49 2.14022 -157.31875 9609 ft 299 kts 348°
2026-05-07 02:49 2.16067 -157.32361 10379 ft 308 kts 348°
2026-05-07 02:49 2.18192 -157.32866 10987 ft 320 kts 348°
2026-05-07 02:49 2.20392 -157.33388 11643 ft 329 kts 348°
2026-05-07 02:50 2.22641 -157.33923 12358 ft 336 kts 348°
2026-05-07 02:50 2.24927 -157.34467 13133 ft 339 kts 348°
2026-05-07 02:50 2.27241 -157.35016 13916 ft 342 kts 347°
2026-05-07 02:50 2.29567 -157.35569 14661 ft 345 kts 347°
2026-05-07 02:51 2.31915 -157.36127 15392 ft 348 kts 347°
2026-05-07 02:51 2.34274 -157.36687 16103 ft 350 kts 347°
2026-05-07 02:51 2.36659 -157.37254 16766 ft 353 kts 347°
2026-05-07 02:51 2.39027 -157.37817 17412 ft 355 kts 347°
2026-05-07 02:52 2.41474 -157.38398 18047 ft 359 kts 347°
2026-05-07 02:52 2.43877 -157.38969 18652 ft 361 kts 347°
2026-05-07 02:52 2.46332 -157.39552 19176 ft 365 kts 347°
2026-05-07 02:52 2.48822 -157.40144 19671 ft 370 kts 346°
2026-05-07 02:53 2.51336 -157.40742 20167 ft 373 kts 347°
2026-05-07 02:53 2.53877 -157.41346 20641 ft 377 kts 347°
2026-05-07 02:53 2.56441 -157.41955 21137 ft 380 kts 347°
2026-05-07 02:53 2.59031 -157.42571 21611 ft 384 kts 347°
2026-05-07 02:54 2.61638 -157.43190 22049 ft 387 kts 347°
2026-05-07 02:54 2.64276 -157.43818 22459 ft 391 kts 347°
2026-05-07 02:54 2.66934 -157.44450 22869 ft 395 kts 347°
2026-05-07 02:54 2.69622 -157.45089 23262 ft 399 kts 347°
2026-05-07 02:55 2.72329 -157.45732 23673 ft 402 kts 346°
2026-05-07 02:55 2.75069 -157.46383 24079 ft 406 kts 347°
2026-05-07 02:55 2.77829 -157.47040 24486 ft 409 kts 346°
2026-05-07 02:55 2.80609 -157.47701 24906 ft 411 kts 346°
2026-05-07 02:56 2.83398 -157.48365 25334 ft 413 kts 346°
2026-05-07 02:56 2.86209 -157.49033 25732 ft 416 kts 346°
2026-05-07 02:56 2.89031 -157.49704 26148 ft 418 kts 346°
2026-05-07 02:56 2.91872 -157.50380 26539 ft 421 kts 346°
2026-05-07 02:57 2.94728 -157.51059 26919 ft 423 kts 346°
2026-05-07 02:57 2.97600 -157.51743 27297 ft 426 kts 346°
2026-05-07 02:57 3.00491 -157.52430 27678 ft 428 kts 345°
2026-05-07 02:57 3.03356 -157.53112 28032 ft 430 kts 345°
2026-05-07 02:58 3.06279 -157.53808 28384 ft 432 kts 345°
2026-05-07 02:58 3.09217 -157.54506 28723 ft 434 kts 345°
2026-05-07 02:58 3.12169 -157.55209 29063 ft 437 kts 345°
2026-05-07 02:58 3.15138 -157.55915 29394 ft 439 kts 345°
2026-05-07 02:59 3.18121 -157.56625 29713 ft 441 kts 345°
2026-05-07 02:59 3.21107 -157.57335 30026 ft 442 kts 345°
2026-05-07 02:59 3.24112 -157.58050 30325 ft 444 kts 345°
2026-05-07 02:59 3.27126 -157.58768 30637 ft 446 kts 345°
2026-05-07 03:00 3.30155 -157.59488 30956 ft 447 kts 345°
2026-05-07 03:00 3.33150 -157.60201 31266 ft 449 kts 345°
2026-05-07 03:00 3.36192 -157.60926 31569 ft 450 kts 345°
2026-05-07 03:00 3.39242 -157.61652 31881 ft 451 kts 345°
2026-05-07 03:01 3.42302 -157.62381 32175 ft 452 kts 345°
2026-05-07 03:01 3.45369 -157.63111 32481 ft 454 kts 345°
2026-05-07 03:01 3.48443 -157.63843 32790 ft 454 kts 345°
2026-05-07 03:01 3.51525 -157.64577 33066 ft 456 kts 345°
2026-05-07 03:02 3.54613 -157.65311 33357 ft 457 kts 345°
2026-05-07 03:02 3.57751 -157.66059 33641 ft 458 kts 345°
2026-05-07 03:02 3.60809 -157.66787 33979 ft 457 kts 345°
2026-05-07 03:02 3.63895 -157.67523 34378 ft 455 kts 345°
2026-05-07 03:03 3.66966 -157.68255 34768 ft 453 kts 345°
2026-05-07 03:03 3.70044 -157.68987 35096 ft 453 kts 345°
2026-05-07 03:03 3.73103 -157.69716 35400 ft 452 kts 345°
2026-05-07 03:03 3.76161 -157.70445 35696 ft 452 kts 345°
2026-05-07 03:04 3.79220 -157.71174 35978 ft 452 kts 345°
2026-05-07 03:04 3.82284 -157.71904 36265 ft 450 kts 345°
2026-05-07 03:04 3.85330 -157.72630 36471 ft 451 kts 345°
2026-05-07 03:04 3.88388 -157.73358 36700 ft 451 kts 345°
2026-05-07 03:05 3.91430 -157.74084 37056 ft 447 kts 345°
2026-05-07 03:05 3.94448 -157.74803 37430 ft 443 kts 345°
2026-05-07 03:05 3.97405 -157.75508 37685 ft 442 kts 345°
2026-05-07 03:05 4.00411 -157.76225 37848 ft 443 kts 345°
2026-05-07 03:06 4.06417 -157.77657 37849 ft 441 kts 345°
2026-05-07 03:06 4.12387 -157.79080 37857 ft 441 kts 345°
2026-05-07 03:07 4.18362 -157.80505 37861 ft 441 kts 345°
2026-05-07 03:07 4.24340 -157.81931 37861 ft 441 kts 345°
2026-05-07 03:08 4.30317 -157.83357 37864 ft 441 kts 345°
2026-05-07 03:08 4.36288 -157.84782 37882 ft 441 kts 345°
2026-05-07 03:09 4.42254 -157.86206 37867 ft 441 kts 345°
2026-05-07 03:09 4.48221 -157.87630 37869 ft 441 kts 345°
2026-05-07 03:10 4.54157 -157.89047 37877 ft 441 kts 345°
2026-05-07 03:10 4.60130 -157.90474 37871 ft 441 kts 345°
2026-05-07 03:11 4.66098 -157.91899 37868 ft 441 kts 345°
2026-05-07 03:11 4.72061 -157.93323 37870 ft 440 kts 345°
2026-05-07 03:12 4.78024 -157.94748 37872 ft 440 kts 345°
2026-05-07 03:12 4.83983 -157.96172 37867 ft 440 kts 345°
2026-05-07 03:13 4.89944 -157.97596 37869 ft 439 kts 345°
2026-05-07 03:13 4.95868 -157.99012 37869 ft 440 kts 345°
2026-05-07 03:14 5.01845 -158.00315 37877 ft 440 kts 347°
2026-05-07 03:15 5.10858 -158.02084 37870 ft 439 kts 347°
2026-05-07 03:15 5.16858 -158.03272 37877 ft 440 kts 347°
2026-05-07 03:16 5.22862 -158.04462 37867 ft 440 kts 347°
2026-05-07 03:16 5.28860 -158.05651 37869 ft 439 kts 347°
2026-05-07 03:17 5.34852 -158.06839 37878 ft 439 kts 347°
2026-05-07 03:17 5.40844 -158.08027 37870 ft 439 kts 347°
2026-05-07 03:18 5.46837 -158.09216 37877 ft 438 kts 347°
2026-05-07 03:18 5.52821 -158.10403 37880 ft 438 kts 347°
2026-05-07 03:19 5.58809 -158.11591 37880 ft 438 kts 347°
2026-05-07 03:19 5.64783 -158.12776 37878 ft 438 kts 347°
2026-05-07 03:20 5.70762 -158.13963 37880 ft 438 kts 347°
2026-05-07 03:20 5.76712 -158.15145 37877 ft 438 kts 347°
2026-05-07 03:21 5.82696 -158.16333 37875 ft 438 kts 347°
2026-05-07 03:21 5.88677 -158.17521 37877 ft 438 kts 347°
2026-05-07 03:22 5.94663 -158.18711 37875 ft 437 kts 347°
2026-05-07 03:22 6.00634 -158.19897 37878 ft 438 kts 347°
2026-05-07 03:23 6.06610 -158.21085 37876 ft 438 kts 347°
2026-05-07 03:23 6.12589 -158.22274 37880 ft 438 kts 347°
2026-05-07 03:24 6.18513 -158.23452 37886 ft 438 kts 347°
2026-05-07 03:24 6.24491 -158.24641 37888 ft 438 kts 347°
2026-05-07 03:25 6.30475 -158.25831 37888 ft 438 kts 347°
2026-05-07 03:25 6.36461 -158.27023 37888 ft 438 kts 347°
2026-05-07 03:26 6.42434 -158.28211 37882 ft 438 kts 347°
2026-05-07 03:26 6.48418 -158.29403 37887 ft 438 kts 347°
2026-05-07 03:27 6.54411 -158.30596 37884 ft 438 kts 347°
2026-05-07 03:27 6.60394 -158.31788 37889 ft 439 kts 347°
2026-05-07 03:28 6.66380 -158.32981 37887 ft 438 kts 347°
2026-05-07 03:28 6.72339 -158.34168 37887 ft 439 kts 347°
2026-05-07 03:29 6.78337 -158.35364 37888 ft 439 kts 347°
2026-05-07 03:29 6.84340 -158.36561 37896 ft 439 kts 347°
2026-05-07 03:30 6.89330 -158.37556 37896 ft 440 kts 347°
2026-05-07 03:30 6.95328 -158.38752 37895 ft 440 kts 347°
2026-05-07 03:31 7.01334 -158.39951 37897 ft 440 kts 347°
2026-05-07 03:31 7.07337 -158.41149 37898 ft 440 kts 347°
2026-05-07 03:32 7.13342 -158.42347 37900 ft 439 kts 347°
2026-05-07 03:32 7.19353 -158.43548 37897 ft 440 kts 347°
2026-05-07 03:33 7.25355 -158.44746 37897 ft 440 kts 347°
2026-05-07 03:33 7.31373 -158.45950 37897 ft 440 kts 347°
2026-05-07 03:34 7.37386 -158.47151 37905 ft 440 kts 347°
2026-05-07 03:34 7.43403 -158.48354 37908 ft 440 kts 347°
2026-05-07 03:35 7.49374 -158.49548 37906 ft 440 kts 347°
2026-05-07 03:35 7.55382 -158.50750 37907 ft 441 kts 347°
2026-05-07 03:36 7.61402 -158.51954 37906 ft 440 kts 347°
2026-05-07 03:36 7.67419 -158.53158 37906 ft 440 kts 347°
2026-05-07 03:37 7.73457 -158.54367 37906 ft 440 kts 347°
2026-05-07 03:37 7.79430 -158.55563 37905 ft 440 kts 347°
2026-05-07 03:38 7.85486 -158.56776 37905 ft 441 kts 347°
2026-05-07 03:38 7.91459 -158.57973 37917 ft 441 kts 347°
2026-05-07 03:39 7.97477 -158.59179 37915 ft 440 kts 347°
2026-05-07 03:39 8.03497 -158.60386 37915 ft 441 kts 347°
2026-05-07 03:40 8.09520 -158.61594 37916 ft 442 kts 347°
2026-05-07 03:40 8.15555 -158.62805 37916 ft 442 kts 347°
2026-05-07 03:41 8.21591 -158.64016 37915 ft 442 kts 347°
2026-05-07 03:41 8.27627 -158.65228 37916 ft 442 kts 347°
2026-05-07 03:42 8.33672 -158.66441 37915 ft 442 kts 347°
2026-05-07 03:42 8.39679 -158.67648 37922 ft 443 kts 347°
2026-05-07 03:43 8.45721 -158.68862 37928 ft 443 kts 347°
2026-05-07 03:43 8.51772 -158.70078 37925 ft 443 kts 347°
2026-05-07 03:44 8.57821 -158.71295 37932 ft 443 kts 347°
2026-05-07 03:44 8.63873 -158.72511 37923 ft 443 kts 347°
2026-05-07 03:45 8.69921 -158.73728 37922 ft 444 kts 347°
2026-05-07 03:45 8.75993 -158.74950 37924 ft 444 kts 347°
2026-05-07 03:46 8.82057 -158.76171 37927 ft 444 kts 347°
2026-05-07 03:46 8.88121 -158.77392 37935 ft 444 kts 347°
2026-05-07 03:47 8.94182 -158.78614 37935 ft 444 kts 347°
2026-05-07 03:47 9.00218 -158.79830 37934 ft 445 kts 347°
2026-05-07 03:48 9.06289 -158.81054 37934 ft 445 kts 347°
2026-05-07 03:48 9.12357 -158.82277 37934 ft 445 kts 347°
2026-05-07 03:49 9.18435 -158.83504 37933 ft 445 kts 347°
2026-05-07 03:49 9.24514 -158.84730 37935 ft 446 kts 346°
2026-05-07 03:50 9.30602 -158.85959 37934 ft 446 kts 346°
2026-05-07 03:50 9.36684 -158.87187 37940 ft 446 kts 346°
2026-05-07 03:51 9.42780 -158.88419 37944 ft 446 kts 346°
2026-05-07 03:51 9.48874 -158.89650 37941 ft 446 kts 346°
2026-05-07 03:52 9.54969 -158.90883 37942 ft 446 kts 346°
2026-05-07 03:52 9.61068 -158.92116 37940 ft 447 kts 346°
2026-05-07 03:53 9.67162 -158.93348 37940 ft 447 kts 346°
2026-05-07 03:53 9.73272 -158.94585 37948 ft 447 kts 346°
2026-05-07 03:54 9.79333 -158.95812 37946 ft 447 kts 346°
2026-05-07 03:54 9.85437 -158.97048 37952 ft 447 kts 346°
2026-05-07 03:55 9.91541 -158.98285 37954 ft 447 kts 346°
2026-05-07 03:55 9.97640 -158.99521 37948 ft 447 kts 346°
2026-05-07 03:56 10.03845 -158.99968 37961 ft 450 kts 357°
2026-05-07 03:56 10.10124 -158.99995 37952 ft 451 kts 357°
2026-05-07 03:57 10.16411 -158.99999 37948 ft 451 kts 357°
2026-05-07 03:57 10.22691 -159.00000 37950 ft 451 kts 357°
2026-05-07 03:58 10.28980 -159.00000 37968 ft 452 kts 357°
2026-05-07 03:58 10.35265 -159.00000 37961 ft 451 kts 357°
2026-05-07 03:59 10.41546 -159.00000 37968 ft 451 kts 357°
2026-05-07 03:59 10.47826 -159.00000 37958 ft 451 kts 357°
2026-05-07 04:00 10.54102 -159.00000 37956 ft 451 kts 357°
2026-05-07 04:00 10.60384 -159.00000 37968 ft 451 kts 357°
2026-05-07 04:01 10.66667 -159.00000 37967 ft 452 kts 357°
2026-05-07 04:01 10.72952 -159.00000 37964 ft 451 kts 357°
2026-05-07 04:02 10.79231 -159.00000 37978 ft 451 kts 357°
2026-05-07 04:02 10.85507 -159.00000 37975 ft 451 kts 357°
2026-05-07 04:03 10.91787 -159.00000 37964 ft 451 kts 357°
2026-05-07 04:03 10.98031 -159.00000 37975 ft 451 kts 357°
2026-05-07 04:04 11.04310 -159.00000 37963 ft 451 kts 356°
2026-05-07 04:04 11.10582 -159.00000 37978 ft 451 kts 356°
2026-05-07 04:05 11.16862 -159.00000 37978 ft 451 kts 356°
2026-05-07 04:05 11.23166 -159.00000 37981 ft 451 kts 356°
2026-05-07 04:06 11.29441 -159.00000 37978 ft 451 kts 356°
2026-05-07 04:06 11.35712 -159.00000 37981 ft 451 kts 356°
2026-05-07 04:07 11.41981 -159.00000 37981 ft 451 kts 356°
2026-05-07 04:07 11.48218 -159.00000 37979 ft 451 kts 356°
2026-05-07 04:08 11.54492 -159.00000 37983 ft 450 kts 356°
2026-05-07 04:08 11.60759 -159.00000 37980 ft 450 kts 356°
2026-05-07 04:09 11.67029 -159.00000 37981 ft 450 kts 356°
2026-05-07 04:09 11.73305 -159.00000 37989 ft 450 kts 356°
2026-05-07 04:10 11.79568 -159.00000 37987 ft 450 kts 356°
2026-05-07 04:10 11.85838 -159.00000 37992 ft 451 kts 356°
2026-05-07 04:11 11.91048 -159.00000 37990 ft 451 kts 356°
2026-05-07 04:11 11.97318 -159.00000 37991 ft 450 kts 356°
2026-05-07 04:12 12.03590 -159.00001 37990 ft 450 kts 355°
2026-05-07 04:12 12.09851 -159.00000 37988 ft 450 kts 356°
2026-05-07 04:13 12.16111 -159.00000 37989 ft 450 kts 356°
2026-05-07 04:13 12.22367 -159.00000 37989 ft 450 kts 356°
2026-05-07 04:14 12.28627 -159.00000 37999 ft 449 kts 356°
2026-05-07 04:14 12.34891 -159.00001 38025 ft 450 kts 355°
2026-05-07 04:15 12.41156 -159.00000 38025 ft 449 kts 355°
2026-05-07 04:15 12.47410 -159.00000 38027 ft 450 kts 355°
2026-05-07 04:16 12.53664 -159.00000 38035 ft 450 kts 355°
2026-05-07 04:16 12.59926 -159.00000 38026 ft 449 kts 355°
2026-05-07 04:17 12.66180 -159.00000 38025 ft 449 kts 355°
2026-05-07 04:17 12.72392 -159.00000 38028 ft 449 kts 355°
2026-05-07 04:18 12.78648 -159.00000 38026 ft 449 kts 355°
2026-05-07 04:18 12.84892 -159.00000 38028 ft 449 kts 355°
2026-05-07 04:19 12.91141 -159.00000 38025 ft 449 kts 355°
2026-05-07 04:19 12.97387 -159.00000 38035 ft 449 kts 355°
2026-05-07 04:20 13.03632 -159.00000 38038 ft 449 kts 355°
2026-05-07 04:20 13.09882 -159.00000 38035 ft 449 kts 355°
2026-05-07 04:21 13.19260 -159.00000 38035 ft 449 kts 355°
2026-05-07 04:21 13.25512 -159.00000 38036 ft 449 kts 355°
2026-05-07 04:22 13.31751 -159.00000 38036 ft 449 kts 355°
2026-05-07 04:22 13.37959 -159.00000 38031 ft 449 kts 355°
2026-05-07 04:23 13.44211 -159.00000 38035 ft 449 kts 355°
2026-05-07 04:23 13.50458 -159.00000 38036 ft 449 kts 355°
2026-05-07 04:24 13.56709 -159.00000 38038 ft 449 kts 355°
2026-05-07 04:24 13.62955 -159.00000 38037 ft 448 kts 355°
2026-05-07 04:25 13.69202 -159.00000 38037 ft 449 kts 355°
2026-05-07 04:25 13.75445 -159.00000 38040 ft 449 kts 355°
2026-05-07 04:26 13.81689 -159.00000 38045 ft 449 kts 355°
2026-05-07 04:26 13.87938 -159.00000 38045 ft 449 kts 355°
2026-05-07 04:27 13.94190 -159.00000 38045 ft 449 kts 355°
2026-05-07 04:27 14.00398 -159.00000 38045 ft 449 kts 355°
2026-05-07 04:28 14.06650 -159.00000 38044 ft 448 kts 355°
2026-05-07 04:28 14.12885 -159.00000 38045 ft 448 kts 355°
2026-05-07 04:29 14.19124 -159.00000 38046 ft 448 kts 355°
2026-05-07 04:29 14.25367 -159.00000 38045 ft 448 kts 355°
2026-05-07 04:30 14.31601 -159.00000 38045 ft 448 kts 355°
2026-05-07 04:30 14.37838 -159.00000 38045 ft 448 kts 355°
2026-05-07 04:31 14.44074 -159.00000 38044 ft 448 kts 355°
2026-05-07 04:31 14.50279 -159.00000 38046 ft 448 kts 355°
2026-05-07 04:32 14.56517 -159.00000 38045 ft 448 kts 355°
2026-05-07 04:32 14.62751 -159.00000 38046 ft 448 kts 355°
2026-05-07 04:33 14.68988 -159.00000 38039 ft 449 kts 355°
2026-05-07 04:33 14.75272 -159.00000 38054 ft 451 kts 355°
2026-05-07 04:34 14.81500 -159.00000 38055 ft 447 kts 355°
2026-05-07 04:34 14.87729 -159.00000 38054 ft 447 kts 355°
2026-05-07 04:35 14.93954 -159.00000 38054 ft 447 kts 355°
2026-05-07 04:35 15.00169 -159.00070 38043 ft 443 kts 348°
2026-05-07 04:36 15.06187 -159.01210 38032 ft 440 kts 345°
2026-05-07 04:36 15.12181 -159.02352 38059 ft 441 kts 345°
2026-05-07 04:37 15.18203 -159.03513 38054 ft 440 kts 345°
2026-05-07 04:37 15.24229 -159.04677 38054 ft 440 kts 345°
2026-05-07 04:38 15.30264 -159.05844 38055 ft 440 kts 345°
2026-05-07 04:38 15.36283 -159.07009 38055 ft 440 kts 345°
2026-05-07 04:39 15.42297 -159.08173 38054 ft 440 kts 345°
2026-05-07 04:39 15.48312 -159.09337 38056 ft 440 kts 345°
2026-05-07 04:40 15.54331 -159.10504 38055 ft 440 kts 345°
2026-05-07 04:40 15.60346 -159.11670 38055 ft 440 kts 345°
2026-05-07 04:41 15.66364 -159.12838 38051 ft 440 kts 345°
2026-05-07 04:41 15.72382 -159.14006 38056 ft 440 kts 345°
2026-05-07 04:42 15.78404 -159.15176 38054 ft 440 kts 345°
2026-05-07 04:42 15.84385 -159.16338 38055 ft 440 kts 345°
2026-05-07 04:43 15.90401 -159.17508 38054 ft 439 kts 345°
2026-05-07 04:43 15.96408 -159.18677 38054 ft 439 kts 345°
2026-05-07 04:44 16.02415 -159.19847 38055 ft 439 kts 345°
2026-05-07 04:44 16.08420 -159.21017 38054 ft 439 kts 345°
2026-05-07 04:45 16.14431 -159.22189 38064 ft 439 kts 345°
2026-05-07 04:45 16.20429 -159.23360 38063 ft 439 kts 345°
2026-05-07 04:46 16.26436 -159.24531 38063 ft 439 kts 345°
2026-05-07 04:46 16.32438 -159.25705 38065 ft 439 kts 345°
2026-05-07 04:47 16.38439 -159.26877 38063 ft 439 kts 345°
2026-05-07 04:47 16.44441 -159.28051 38064 ft 439 kts 345°
2026-05-07 04:48 16.50436 -159.29224 38064 ft 439 kts 345°
2026-05-07 04:48 16.56431 -159.30398 38063 ft 438 kts 345°
2026-05-07 04:49 16.62430 -159.31574 38064 ft 439 kts 345°
2026-05-07 04:49 16.68432 -159.32751 38064 ft 439 kts 345°
2026-05-07 04:50 16.74431 -159.33928 38063 ft 439 kts 345°
2026-05-07 04:50 16.80432 -159.35105 38055 ft 438 kts 345°
2026-05-07 04:51 16.86426 -159.36283 38054 ft 438 kts 345°
2026-05-07 04:51 16.92384 -159.37454 38053 ft 438 kts 345°
2026-05-07 04:52 16.98377 -159.38633 38053 ft 438 kts 345°
2026-05-07 04:52 17.03366 -159.39614 38055 ft 438 kts 345°
2026-05-07 04:53 17.09353 -159.40794 38054 ft 438 kts 345°
2026-05-07 04:53 17.15347 -159.41975 38054 ft 438 kts 345°
2026-05-07 04:54 17.21343 -159.43158 38054 ft 438 kts 345°
2026-05-07 04:54 17.27336 -159.44340 38055 ft 438 kts 345°
2026-05-07 04:55 17.33318 -159.45521 38055 ft 438 kts 345°
2026-05-07 04:55 17.39307 -159.46704 38054 ft 438 kts 345°
2026-05-07 04:56 17.45298 -159.47889 38054 ft 438 kts 345°
2026-05-07 04:56 17.51278 -159.49072 38076 ft 437 kts 345°
2026-05-07 04:57 17.57240 -159.50252 38081 ft 437 kts 345°
2026-05-07 04:57 17.63211 -159.51435 38086 ft 437 kts 345°
2026-05-07 04:58 17.69185 -159.52619 38082 ft 437 kts 345°
2026-05-07 04:58 17.75164 -159.53786 38077 ft 438 kts 348°
2026-05-07 04:59 17.81296 -159.54070 38073 ft 442 kts 353°
2026-05-07 04:59 17.87445 -159.54285 38086 ft 442 kts 353°
2026-05-07 05:00 17.93596 -159.54492 38081 ft 442 kts 353°
2026-05-07 05:00 17.99758 -159.54700 38084 ft 442 kts 353°
2026-05-07 05:01 18.05914 -159.54906 38078 ft 442 kts 353°
2026-05-07 05:01 18.12055 -159.55113 38080 ft 441 kts 353°
2026-05-07 05:02 18.18200 -159.55319 38082 ft 442 kts 353°
2026-05-07 05:02 18.24307 -159.55525 38081 ft 442 kts 353°
2026-05-07 05:03 18.30437 -159.55731 38082 ft 442 kts 353°
2026-05-07 05:03 18.36580 -159.55938 38090 ft 442 kts 353°
2026-05-07 05:04 18.42740 -159.56146 38082 ft 442 kts 353°
2026-05-07 05:04 18.48886 -159.56353 38082 ft 442 kts 353°
2026-05-07 05:05 18.55026 -159.56560 38082 ft 442 kts 353°
2026-05-07 05:05 18.61174 -159.56768 38086 ft 441 kts 353°
2026-05-07 05:06 18.67322 -159.56976 38081 ft 442 kts 353°
2026-05-07 05:06 18.73467 -159.57184 38081 ft 442 kts 353°
2026-05-07 05:07 18.79612 -159.57393 38081 ft 442 kts 353°
2026-05-07 05:07 18.85718 -159.57600 38079 ft 442 kts 353°
2026-05-07 05:08 18.91860 -159.57808 38083 ft 442 kts 353°
2026-05-07 05:08 18.97995 -159.58015 38087 ft 441 kts 353°
2026-05-07 05:09 19.04145 -159.58187 38075 ft 444 kts 359°
2026-05-07 05:09 19.07202 -159.57625 38076 ft 451 kts 15°
2026-05-07 05:09 19.10052 -159.56189 38096 ft 459 kts 28°
2026-05-07 05:10 19.15446 -159.52511 38083 ft 462 kts 29°
2026-05-07 05:10 19.20805 -159.48738 38076 ft 462 kts 30°
2026-05-07 05:11 19.26145 -159.44935 38081 ft 463 kts 30°
2026-05-07 05:11 19.31479 -159.41131 38085 ft 462 kts 30°
2026-05-07 05:12 19.36808 -159.37325 38078 ft 462 kts 30°
2026-05-07 05:12 19.42139 -159.33516 38079 ft 462 kts 30°
2026-05-07 05:13 19.47473 -159.29701 38075 ft 461 kts 30°
2026-05-07 05:13 19.50078 -159.27836 37616 ft 456 kts 30°
2026-05-07 05:13 19.52714 -159.25949 36946 ft 457 kts 30°
2026-05-07 05:14 19.55349 -159.24062 36366 ft 455 kts 31°
2026-05-07 05:14 19.57961 -159.22191 35870 ft 451 kts 31°
2026-05-07 05:14 19.60549 -159.20336 35379 ft 448 kts 31°
2026-05-07 05:14 19.63124 -159.18489 34859 ft 445 kts 31°
2026-05-07 05:15 19.65674 -159.16660 34360 ft 442 kts 31°
2026-05-07 05:15 19.68217 -159.14835 33874 ft 439 kts 31°
2026-05-07 05:15 19.70739 -159.13025 33388 ft 436 kts 31°
2026-05-07 05:15 19.73250 -159.11221 32883 ft 434 kts 31°
2026-05-07 05:16 19.75746 -159.09428 32389 ft 432 kts 31°
2026-05-07 05:16 19.78226 -159.07646 31906 ft 429 kts 31°
2026-05-07 05:16 19.80690 -159.05874 31436 ft 427 kts 31°
2026-05-07 05:16 19.83140 -159.04113 30947 ft 424 kts 31°
2026-05-07 05:17 19.85575 -159.02360 30479 ft 422 kts 31°
2026-05-07 05:17 19.87997 -159.00617 30014 ft 419 kts 31°
2026-05-07 05:17 19.90406 -158.98882 29547 ft 417 kts 31°
2026-05-07 05:17 19.92799 -158.97159 29101 ft 414 kts 31°
2026-05-07 05:18 19.95178 -158.95444 28657 ft 412 kts 31°
2026-05-07 05:18 19.97542 -158.93741 28233 ft 410 kts 31°
2026-05-07 05:18 19.99901 -158.92040 27766 ft 409 kts 32°
2026-05-07 05:18 20.02251 -158.90344 27342 ft 408 kts 32°
2026-05-07 05:19 20.04600 -158.88648 26904 ft 408 kts 32°
2026-05-07 05:19 20.06917 -158.86976 26452 ft 406 kts 32°
2026-05-07 05:19 20.09250 -158.85290 26034 ft 403 kts 32°
2026-05-07 05:19 20.11557 -158.83624 25618 ft 400 kts 32°
2026-05-07 05:20 20.13849 -158.81967 25200 ft 396 kts 32°
2026-05-07 05:20 20.16119 -158.80327 24793 ft 393 kts 32°
2026-05-07 05:20 20.18374 -158.78695 24375 ft 390 kts 32°
2026-05-07 05:20 20.20608 -158.77079 23968 ft 387 kts 32°
2026-05-07 05:21 20.22829 -158.75471 23561 ft 384 kts 32°
2026-05-07 05:21 20.27208 -158.72301 22766 ft 378 kts 32°
2026-05-07 05:21 20.29374 -158.70732 22368 ft 376 kts 32°
2026-05-07 05:22 20.31529 -158.69171 21980 ft 373 kts 32°
2026-05-07 05:22 20.33667 -158.67620 21584 ft 370 kts 32°
2026-05-07 05:22 20.35793 -158.66078 21197 ft 368 kts 32°
2026-05-07 05:22 20.37897 -158.64550 20819 ft 365 kts 32°
2026-05-07 05:23 20.39987 -158.63034 20432 ft 362 kts 32°
2026-05-07 05:23 20.42066 -158.61525 20055 ft 360 kts 32°
2026-05-07 05:23 20.44129 -158.60027 19679 ft 357 kts 32°
2026-05-07 05:23 20.46173 -158.58542 19306 ft 355 kts 32°
2026-05-07 05:24 20.48206 -158.57065 18935 ft 352 kts 32°
2026-05-07 05:24 20.50226 -158.55597 18565 ft 350 kts 32°
2026-05-07 05:24 20.52226 -158.54142 18207 ft 347 kts 32°
2026-05-07 05:24 20.54198 -158.52708 17831 ft 345 kts 32°
2026-05-07 05:25 20.56170 -158.51273 17472 ft 342 kts 32°
2026-05-07 05:25 20.58136 -158.49842 17114 ft 340 kts 32°
2026-05-07 05:25 20.60081 -158.48426 16758 ft 337 kts 32°
2026-05-07 05:25 20.62010 -158.47021 16406 ft 334 kts 32°
2026-05-07 05:26 20.63926 -158.45625 16053 ft 332 kts 32°
2026-05-07 05:26 20.65825 -158.44241 15699 ft 330 kts 33°
2026-05-07 05:26 20.67711 -158.42866 15354 ft 327 kts 33°
2026-05-07 05:26 20.69584 -158.41501 14995 ft 325 kts 33°
2026-05-07 05:27 20.71442 -158.40145 14648 ft 322 kts 33°
2026-05-07 05:27 20.73290 -158.38798 14284 ft 321 kts 33°
2026-05-07 05:27 20.75130 -158.37454 13895 ft 320 kts 33°
2026-05-07 05:27 20.76964 -158.36115 13520 ft 318 kts 33°
2026-05-07 05:28 20.78787 -158.34784 13170 ft 316 kts 33°
2026-05-07 05:28 20.80594 -158.33464 12836 ft 314 kts 33°
2026-05-07 05:28 20.82391 -158.32151 12506 ft 311 kts 33°
2026-05-07 05:28 20.84174 -158.30848 12172 ft 309 kts 33°
2026-05-07 05:29 20.85941 -158.29556 11832 ft 307 kts 33°
2026-05-07 05:29 20.87675 -158.28288 11507 ft 305 kts 33°
2026-05-07 05:29 20.89418 -158.27013 11198 ft 302 kts 34°
2026-05-07 05:29 20.91141 -158.25752 10861 ft 300 kts 34°
2026-05-07 05:30 20.92862 -158.24494 10527 ft 298 kts 34°
2026-05-07 05:30 20.94538 -158.23205 10198 ft 295 kts 37°
2026-05-07 05:30 20.96164 -158.21877 9860 ft 293 kts 37°
2026-05-07 05:30 20.97777 -158.20566 9581 ft 290 kts 37°
2026-05-07 05:31 20.99378 -158.19269 9288 ft 287 kts 37°
2026-05-07 05:31 21.00965 -158.17986 8987 ft 284 kts 37°
2026-05-07 05:31 21.02538 -158.16715 8690 ft 282 kts 37°
2026-05-07 05:31 21.04098 -158.15455 8384 ft 280 kts 37°
2026-05-07 05:32 21.05651 -158.14200 8081 ft 279 kts 37°
2026-05-07 05:32 21.07190 -158.12955 7780 ft 276 kts 37°
2026-05-07 05:32 21.08716 -158.11722 7494 ft 274 kts 37°
2026-05-07 05:32 21.10227 -158.10500 7216 ft 271 kts 37°
2026-05-07 05:33 21.11730 -158.09285 6896 ft 271 kts 37°
2026-05-07 05:33 21.13229 -158.08071 6608 ft 268 kts 37°
2026-05-07 05:33 21.14706 -158.06877 6430 ft 263 kts 37°
2026-05-07 05:33 21.16136 -158.05718 6305 ft 253 kts 37°
2026-05-07 05:34 21.17596 -158.04720 6131 ft 247 kts 20°
2026-05-07 05:34 21.19258 -158.04538 6009 ft 238 kts 350°
2026-05-07 05:34 21.20713 -158.05280 5979 ft 232 kts 318°
2026-05-07 05:34 21.21373 -158.06182 5940 ft 234 kts 297°
2026-05-07 05:35 21.21766 -158.07850 5574 ft 234 kts 273°
2026-05-07 05:35 21.21772 -158.09606 5119 ft 235 kts 270°
2026-05-07 05:35 21.21743 -158.11348 4733 ft 233 kts 269°
2026-05-07 05:35 21.21713 -158.13086 4292 ft 233 kts 269°
2026-05-07 05:36 21.21684 -158.14816 3851 ft 232 kts 269°
2026-05-07 05:36 21.21656 -158.16544 3475 ft 232 kts 269°
2026-05-07 05:36 21.21628 -158.18259 3199 ft 228 kts 269°
2026-05-07 05:36 21.21601 -158.19960 3000 ft 228 kts 269°
2026-05-07 05:37 21.21583 -158.21666 2986 ft 230 kts 274°
2026-05-07 05:37 21.22051 -158.23264 2950 ft 226 kts 307°
2026-05-07 05:37 21.23228 -158.24319 2980 ft 221 kts 340°
2026-05-07 05:37 21.24732 -158.24628 3023 ft 221 kts 358°
2026-05-07 05:38 21.26268 -158.24634 2982 ft 219 kts 13°
2026-05-07 05:38 21.27581 -158.23909 2913 ft 213 kts 48°
2026-05-07 05:38 21.28342 -158.22554 2983 ft 214 kts 68°
2026-05-07 05:38 21.28879 -158.21081 3021 ft 215 kts 69°
2026-05-07 05:39 21.29414 -158.19579 3007 ft 217 kts 69°
2026-05-07 05:39 21.29952 -158.18070 2999 ft 215 kts 69°
2026-05-07 05:39 21.30484 -158.16574 3012 ft 215 kts 69°
2026-05-07 05:39 21.31017 -158.15077 3000 ft 215 kts 69°
2026-05-07 05:40 21.31537 -158.13617 3035 ft 201 kts 69°
2026-05-07 05:40 21.32013 -158.12280 3007 ft 183 kts 69°
2026-05-07 05:40 21.32395 -158.11028 2948 ft 172 kts 77°
2026-05-07 05:40 21.32525 -158.09761 2751 ft 170 kts 89°
2026-05-07 05:41 21.32525 -158.08505 2577 ft 168 kts 89°
2026-05-07 05:41 21.32524 -158.07252 2369 ft 168 kts 89°
2026-05-07 05:41 21.32520 -158.06023 2149 ft 162 kts 89°
2026-05-07 05:41 21.32528 -158.04837 1928 ft 158 kts 89°
2026-05-07 05:42 21.32522 -158.03679 1751 ft 152 kts 90°
2026-05-07 05:42 21.32522 -158.02563 1530 ft 149 kts 89°
2026-05-07 05:42 21.32523 -158.01448 1333 ft 149 kts 89°
2026-05-07 05:42 21.32523 -158.00337 1140 ft 149 kts 89°
2026-05-07 05:43 21.32522 -157.99221 940 ft 150 kts 89°
2026-05-07 05:43 21.32522 -157.98104 744 ft 150 kts 89°
2026-05-07 05:43 21.32523 -157.96981 541 ft 150 kts 89°
2026-05-07 05:43 21.32523 -157.95866 346 ft 150 kts 89°
2026-05-07 05:44 21.32523 -157.94750 146 ft 150 kts 90°
2026-05-07 05:44 21.32523 -157.93663 28 ft 131 kts 89°
2026-05-07 05:44 21.32525 -157.92962 27 ft 60 kts 90°
2026-05-07 05:44 21.32526 -157.92672 27 ft 39 kts 90°
2026-05-07 05:45 21.32526 -157.92402 27 ft 21 kts 90°
2026-05-07 05:45 21.32540 -157.92285 27 ft 10 kts 57°
2026-05-07 05:45 21.32576 -157.92257 27 ft 8 kts
2026-05-07 05:45 21.32667 -157.92254 27 ft 17 kts
2026-05-07 05:46 21.32791 -157.92249 27 ft 20 kts
2026-05-07 05:46 21.32934 -157.92225 26 ft 19 kts
2026-05-07 05:46 21.33025 -157.92208 26 ft 5 kts
2026-05-07 05:46 21.33058 -157.92203 26 ft 0 kts
2026-05-07 05:47 21.33071 -157.92205 26 ft 2 kts 324°
2026-05-07 05:47 21.33078 -157.92226 26 ft 4 kts 285°
2026-05-07 05:47 21.33081 -157.92252 26 ft 2 kts 274°
2026-05-07 05:47 21.33082 -157.92261 26 ft 0 kts 279°